Wetbulb
55.69 55.44 55.57 55.42 55.24 55.46 55.77 55.87 55.48 55.16 55.37 55.49 55.56 55.63 55.87 55.47 53.48 45.46 41.75 47.78 51.07 57.47 58.04 47.86 43.99 42.64 41.84 40.75 44.60 45.40 35.96 31.78 34.47 36.50 37.43 36.92 36.28 39.09 38.30 36.75 37.66 39.51 40.57 41.28 42.09
55.69 55.04 55.46 55.33 55.23 55.19 55.58 55.70 55.35 55.05 55.29 55.42 55.33 55.54 55.49 54.40 47.00 40.44 49.28 54.87 55.92 58.17 48.24 42.61 41.14 41.35 38.27 39.72 41.67 40.51 34.11 35.07 37.02 36.27 35.44 35.42 33.76 33.49 33.52 32.80 32.64 34.79 38.74 40.29 40.95
56.04 54.80 55.34 55.23 55.11 55.16 55.45 55.45 55.17 54.82 55.13 55.23 55.26 55.44 55.28 50.02 40.37 38.76 52.56 54.83 55.70 54.26 48.84 44.07 43.74 42.22 37.31 40.01 37.77 37.74 33.50 36.02 34.77 35.86 35.43 34.31 32.23 33.50 30.15 30.42 32.34 33.02 36.10 37.71 38.35
56.20 55.51 55.17 55.11 55.11 55.03 55.17 55.39 55.22 54.79 54.92 54.99 55.04 55.15 55.68 42.62 30.37 41.15 53.31 54.27 54.69 48.96 46.38 42.47 40.48 36.91 36.01 35.73 36.69 33.40 34.83 34.59 37.15 37.36 34.91 32.68 33.06 31.14 31.96 33.68 35.45 35.65 36.62 35.93 36.76
56.00 55.44 55.45 55.26 55.16 55.01 54.82 55.19 55.16 54.61 54.71 54.67 54.68 54.98 44.50 34.46 35.30 44.42 52.19 49.79 46.65 46.26 43.52 41.30 38.45 36.20 34.17 33.58 34.08 31.77 32.70 35.57 35.49 35.68 34.68 35.57 33.24 31.92 33.04 35.61 35.87 36.22 37.21 36.90 37.08
56.29 55.42 55.15 55.25 55.26 54.99 54.61 54.97 54.71 54.31 54.54 54.47 54.15 54.38 40.00 30.61 42.64 44.56 44.73 45.52 44.45 43.67 41.72 41.65 38.76 39.00 35.26 32.84 31.71 32.55 33.28 33.32 34.08 34.19 33.76 32.68 31.26 31.89 33.64 33.43 35.50 36.37 36.26 36.05 36.41
56.39 55.87 55.29 55.17 55.25 54.91 54.34 54.58 53.99 54.00 54.32 54.32 54.17 46.59 36.48 33.92 42.23 43.46 44.59 43.07 43.63 42.67 40.01 41.21 41.75 37.83 36.48 32.49 34.88 33.67 29.85 30.08 31.29 32.62 31.42 32.24 28.61 28.71 31.86 32.60 33.82 34.05 33.09 34.54 35.84
56.18 55.91 55.47 55.23 55.12 54.79 54.20 54.23 54.23 54.40 54.24 53.96 54.14 41.08 34.38 42.28 40.57 43.08 44.00 43.06 44.26 43.63 42.64 42.69 41.78 39.10 35.71 35.89 33.02 28.45 27.45 24.19 28.19 31.38 32.29 31.89 25.28 31.36 31.73 29.85 32.84 32.23 32.02 33.70 35.47
55.96 55.68 55.71 55.49 55.31 54.94 54.24 54.53 54.79 53.71 53.44 53.54 41.33 36.45 33.62 46.58 40.15 41.93 42.53 40.67 42.28 42.14 41.81 44.70 40.52 33.29 33.01 29.30 26.11 25.20 22.46 21.94 26.05 30.58 29.87 27.85 25.13 30.17 32.37 32.02 31.96 32.10 31.93 33.35 34.69
56.02 55.64 55.77 55.34 55.17 54.75 54.56 53.93 53.47 49.30 48.53 46.24 42.15 35.09 37.68 35.38 39.70 41.25 41.55 42.54 40.13 39.19 38.37 37.39 31.90 27.43 25.72 25.26 22.03 23.28 21.68 23.27 21.70 26.05 27.97 25.10 25.89 30.38 31.42 32.52 31.25 31.13 31.49 32.70 35.96
56.36 56.00 55.86 55.41 54.68 53.90 50.46 43.77 38.96 39.62 39.80 36.04 35.78 35.90 37.23 39.88 41.52 39.56 40.90 39.88 39.06 35.42 28.38 31.62 27.51 25.01 24.99 26.73 27.28 25.77 23.59 21.95 23.75 28.01 25.39 22.60 24.64 28.90 32.66 31.48 31.06 31.57 32.11 34.13 36.94
56.80 56.16 55.62 54.66 53.66 52.44 45.59 40.70 40.80 41.54 33.28 38.77 38.21 38.11 38.79 39.28 35.07 37.27 40.93 34.20 32.83 27.91 30.39 28.64 25.15 27.74 31.00 30.05 27.90 26.44 23.15 21.74 25.01 26.99 26.45 24.94 26.46 29.89 30.23 31.37 30.82 32.12 33.50 34.72 35.20
56.83 56.03 55.04 53.55 53.21 44.45 43.38 42.90 47.08 44.90 33.68 37.01 38.17 37.41 36.86 38.23 33.71 33.63 37.26 34.21 29.74 26.98 27.45 26.60 27.13 31.35 29.18 27.18 25.91 24.12 23.07 22.55 22.67 25.47 26.43 25.34 23.49 26.16 30.34 31.41 33.20 33.95 34.87 35.16 34.32
55.32 55.70 53.44 52.66 44.29 42.17 41.81 45.87 45.89 44.86 31.06 33.17 33.64 37.25 38.56 37.72 33.12 38.48 38.13 34.45 30.55 27.12 26.79 26.71 29.20 28.15 26.95 26.43 26.04 23.49 26.71 25.32 24.81 22.76 16.12 25.88 13.21 24.04 27.03 29.17 31.45 32.66 32.93 32.49 33.86
53.27 55.06 51.98 50.40 44.27 42.03 43.43 46.15 45.08 41.44 21.37 33.94 34.04 41.26 38.68 34.86 34.07 34.43 38.41 34.50 28.33 27.54 27.60 25.54 25.89 25.89 26.34 27.09 27.09 24.55 26.71 25.66 25.25 22.20 20.87 21.94 14.45 22.21 26.13 27.82 29.34 30.73 32.68 32.35 32.82
52.76 54.44 50.91 47.14 45.47 44.78 45.96 45.26 42.54 32.60 24.46 28.84 34.32 33.28 32.62 33.27 32.09 34.21 34.60 36.05 32.45 28.32 27.04 25.17 28.13 27.22 27.04 27.41 27.14 28.32 26.06 24.55 24.61 22.70 6.90 19.55 19.38 19.55 23.67 27.28 26.97 29.47 30.83 31.60 31.44
52.50 53.22 50.13 47.89 43.57 45.76 44.62 42.69 32.30 25.73 32.18 27.35 27.69 32.19 30.62 28.95 29.96 31.06 28.81 26.78 25.69 22.17 22.64 24.87 25.49 26.76 27.85 25.09 27.04 27.34 19.66 6.55 8.05 4.60 9.05 20.84 19.37 22.93 27.03 28.50 30.03 30.55 29.63 29.85 30.46
52.41 51.77 47.90 46.41 46.18 45.08 44.58 35.39 29.06 30.65 29.48 30.22 29.14 29.60 27.46 28.91 28.29 28.80 27.81 25.40 26.67 24.47 19.93 19.69 18.52 25.75 26.89 24.58 23.78 26.39 18.90 8.92 8.01 4.16 7.95 20.23 14.03 22.53 27.36 29.73 31.30 30.60 29.99 29.54 29.60
49.61 45.11 43.90 43.40 44.89 43.48 39.87 30.77 32.16 29.81 31.14 28.68 27.93 24.69 23.73 27.37 27.59 27.52 26.42 26.06 27.66 26.79 22.83 19.52 20.99 25.51 26.85 27.50 27.29 23.71 14.85 22.10 3.72 3.91 3.56 13.20 19.59 25.41 28.31 28.52 29.56 27.91 27.51 26.50 29.20
44.92 43.00 41.85 43.89 43.77 42.69 33.59 34.03 32.20 35.22 32.58 31.55 26.88 27.04 21.37 22.80 24.15 25.68 25.83 28.42 27.72 28.46 27.13 24.66 18.74 24.77 25.85 29.05 28.27 26.04 26.69 15.18 7.79 4.84 1.69 9.03 13.02 17.83 24.32 25.65 26.95 26.30 25.08 26.98 28.61
43.92 39.24 41.21 43.74 43.63 36.76 30.71 33.06 33.17 33.74 34.97 32.48 29.35 29.35 28.19 24.95 24.70 22.91 25.47 28.96 29.26 27.73 27.69 24.67 24.17 21.79 24.30 22.15 22.47 21.20 16.01 15.29 15.21 12.79 2.71 -0.63 12.86 21.28 24.38 26.08 24.37 24.69 25.38 25.46 27.86
42.37 33.04 40.89 41.46 32.92 31.93 31.47 33.77 36.07 31.17 34.54 31.77 32.53 31.58 29.15 28.61 22.63 24.25 25.00 27.45 31.27 29.21 23.90 26.75 23.67 17.62 20.69 22.69 25.18 24.21 21.39 17.87 9.79 9.32 10.61 7.40 13.05 26.00 25.90 26.61 25.81 24.71 25.68 26.09 28.38
36.91 35.08 40.84 39.68 30.16 28.96 31.81 31.45 32.19 30.37 30.39 33.13 32.91 32.36 31.01 29.11 25.48 25.78 26.19 30.44 30.81 28.09 24.93 26.43 18.57 14.42 21.01 21.73 23.38 21.49 23.60 21.83 10.73 9.82 10.93 4.48 13.77 26.17 25.70 25.98 25.52 23.90 25.12 25.26 26.85
35.37 29.39 32.39 34.45 33.55 33.62 30.50 28.91 28.11 33.20 32.22 32.29 30.76 31.24 28.88 27.05 28.64 24.48 25.57 29.41 30.57 28.66 33.13 29.60 20.10 18.69 23.08 23.29 21.77 19.47 21.39 22.00 14.95 6.82 6.71 13.30 15.91 25.85 26.86 22.73 23.73 23.46 23.84 23.23 23.85
34.10 32.11 29.03 26.45 28.33 32.13 33.35 31.13 28.29 27.49 31.52 34.16 30.17 30.84 28.54 24.90 24.82 23.19 26.31 27.10 29.16 31.97 27.37 25.30 15.21 14.83 16.86 19.00 19.27 20.92 20.67 21.65 17.14 15.31 14.91 18.16 12.57 20.99 19.25 13.60 20.17 19.50 23.60 24.46 24.45
30.37 32.37 32.40 26.97 31.35 31.60 33.34 31.95 30.62 29.12 29.59 29.28 29.40 30.32 30.45 29.09 30.07 26.56 26.28 25.99 25.45 26.95 24.91 25.06 15.33 19.76 15.29 19.68 20.36 18.87 21.42 21.67 22.39 21.30 16.93 20.74 20.32 28.98 29.73 27.24 20.18 19.99 17.31 21.47 21.61
35.51 36.05 33.08 32.45 30.76 30.35 31.86 33.04 32.32 31.46 31.25 31.92 32.57 29.79 28.22 30.87 32.00 29.71 29.17 28.79 27.34 25.54 22.56 21.99 17.47 11.20 13.16 16.84 17.07 16.89 20.36 21.20 18.99 17.06 20.15 13.65 21.21 19.52 16.64 18.50 14.36 18.39 19.64 21.68 26.25
MSLP
1018.74 1018.44 1018.09 1018.01 1018.10 1017.44 1016.95 1016.72 1016.39 1016.13 1015.84 1015.65 1015.33 1014.90 1014.70 1014.30 1014.03 1014.01 1014.27 1014.15 1013.69 1013.26 1013.17 1013.20 1013.06 1013.12 1013.20 1013.51 1013.61 1013.93 1014.81 1015.04 1014.43 1014.20 1013.88 1013.94 1013.84 1013.62 1013.57 1013.43 1013.12 1012.64 1012.46 1012.45 1012.30
1018.86 1018.52 1018.07 1018.00 1018.17 1017.40 1016.82 1016.61 1016.31 1016.12 1015.79 1015.58 1015.15 1014.91 1014.69 1014.36 1014.38 1014.25 1014.07 1013.58 1013.30 1013.05 1013.11 1013.06 1013.18 1013.25 1013.61 1013.78 1014.00 1014.37 1015.15 1014.68 1014.20 1014.12 1014.16 1014.37 1014.50 1014.42 1014.29 1014.21 1013.92 1013.35 1012.97 1012.80 1012.68
1018.91 1018.58 1018.28 1018.03 1017.96 1017.34 1016.71 1016.37 1016.34 1016.02 1015.70 1015.46 1014.99 1014.86 1014.64 1014.43 1014.50 1014.03 1013.64 1013.33 1013.08 1012.94 1013.10 1013.00 1013.11 1013.22 1013.65 1013.89 1014.28 1014.53 1014.84 1014.53 1014.38 1014.31 1014.41 1014.56 1014.63 1014.62 1014.70 1014.59 1014.18 1013.77 1013.48 1013.21 1012.99
1018.92 1018.78 1018.39 1017.94 1017.76 1017.18 1016.60 1016.35 1016.23 1015.86 1015.56 1015.25 1014.93 1014.71 1014.43 1014.37 1014.67 1013.90 1013.54 1013.26 1012.94 1012.74 1012.97 1013.02 1013.31 1013.66 1013.98 1014.30 1014.34 1014.65 1014.66 1014.69 1014.59 1014.59 1014.81 1014.96 1015.01 1015.22 1015.14 1014.65 1014.10 1014.11 1013.93 1013.68 1013.39
1018.94 1018.73 1018.35 1017.93 1017.61 1017.07 1016.58 1016.18 1015.92 1015.68 1015.43 1015.12 1014.90 1014.62 1014.44 1014.39 1014.24 1013.80 1013.64 1013.37 1012.97 1012.89 1013.41 1013.41 1013.67 1013.98 1014.25 1014.49 1014.67 1014.88 1015.09 1015.08 1015.03 1015.06 1015.05 1015.07 1015.15 1015.34 1014.73 1014.35 1014.25 1014.17 1014.05 1013.89 1013.75
1018.84 1018.56 1018.33 1017.99 1017.51 1016.97 1016.45 1015.96 1015.61 1015.49 1015.27 1015.00 1014.75 1014.58 1014.41 1014.37 1013.93 1013.93 1013.82 1013.45 1013.34 1013.33 1013.76 1013.74 1014.02 1014.19 1014.51 1014.85 1015.07 1015.34 1015.34 1015.39 1015.44 1015.34 1015.27 1015.48 1015.33 1015.42 1014.29 1014.12 1014.35 1014.41 1014.31 1014.05 1013.91
1018.57 1018.45 1018.23 1017.77 1017.22 1016.76 1016.23 1015.75 1015.31 1015.14 1015.06 1014.87 1014.64 1014.61 1014.28 1014.12 1013.88 1013.99 1013.89 1013.73 1013.60 1013.60 1013.93 1014.08 1014.08 1014.43 1014.86 1015.33 1015.49 1015.59 1015.76 1015.83 1016.00 1015.82 1015.82 1015.67 1015.30 1015.25 1014.28 1014.48 1014.56 1014.55 1014.46 1014.17 1013.80
1018.33 1018.33 1018.04 1017.46 1016.96 1016.52 1015.98 1015.45 1014.99 1014.70 1014.71 1014.69 1014.55 1014.54 1014.17 1013.89 1013.90 1013.96 1013.93 1013.87 1013.82 1013.70 1013.82 1013.98 1014.00 1014.53 1015.28 1015.72 1015.95 1016.36 1016.44 1016.74 1016.48 1016.12 1016.07 1016.11 1015.65 1014.37 1014.42 1014.73 1014.35 1014.21 1014.14 1013.68 1013.30
1018.20 1018.06 1017.74 1017.34 1016.71 1016.33 1015.64 1014.97 1014.57 1014.32 1014.40 1014.44 1014.61 1014.39 1014.18 1013.96 1014.05 1014.20 1014.16 1014.29 1014.10 1013.88 1013.89 1013.92 1014.22 1015.57 1016.09 1016.43 1017.09 1017.43 1017.77 1017.79 1017.29 1017.14 1017.10 1017.06 1015.95 1014.33 1014.42 1014.62 1014.28 1013.94 1014.02 1013.83 1013.20
1017.88 1017.69 1017.51 1017.09 1016.75 1016.00 1015.35 1014.54 1014.27 1014.22 1014.39 1014.49 1014.56 1014.83 1014.41 1014.49 1014.38 1014.40 1014.28 1014.27 1014.32 1014.21 1014.27 1014.57 1015.43 1016.28 1017.15 1017.39 1017.80 1018.08 1018.48 1018.53 1018.73 1018.15 1017.88 1017.69 1016.53 1015.19 1014.72 1015.02 1014.72 1014.50 1014.03 1013.84 1013.73
1017.69 1017.43 1017.16 1016.85 1016.55 1016.01 1015.36 1014.73 1014.96 1015.20 1014.99 1015.03 1015.04 1014.93 1014.77 1014.76 1014.57 1014.51 1014.61 1014.51 1014.49 1014.71 1015.16 1015.59 1016.16 1017.06 1017.73 1017.82 1017.96 1018.43 1019.00 1019.49 1019.05 1018.76 1018.57 1017.95 1017.12 1015.52 1014.76 1014.80 1014.56 1014.36 1014.09 1013.94 1014.07
1017.45 1017.22 1017.08 1016.96 1016.66 1016.10 1015.66 1016.47 1017.05 1017.67 1016.39 1015.18 1015.01 1015.02 1014.95 1014.97 1014.85 1014.77 1014.77 1014.92 1014.87 1015.45 1015.59 1016.31 1016.72 1017.47 1017.84 1018.14 1018.48 1018.99 1019.61 1019.74 1019.18 1019.10 1019.36 1018.33 1016.53 1015.42 1014.62 1014.23 1014.12 1014.13 1014.24 1014.09 1014.08
1017.16 1017.08 1016.98 1016.81 1016.48 1016.62 1017.15 1017.76 1017.63 1017.68 1017.28 1015.41 1015.03 1014.98 1015.02 1015.07 1015.06 1015.07 1015.14 1015.08 1015.27 1015.87 1016.25 1016.82 1017.56 1017.67 1018.07 1018.47 1018.94 1019.30 1019.74 1019.87 1020.24 1019.94 1019.73 1019.28 1017.05 1015.24 1014.37 1014.03 1014.08 1014.11 1014.18 1014.23 1014.22
1017.25 1016.84 1016.75 1016.58 1016.96 1017.32 1017.77 1018.00 1017.77 1017.95 1017.61 1015.62 1015.24 1014.92 1014.99 1014.94 1015.23 1015.15 1015.24 1015.41 1015.67 1016.26 1016.90 1017.35 1017.67 1017.91 1018.34 1018.76 1019.36 1019.71 1019.82 1020.23 1020.66 1021.15 1021.13 1020.01 1018.66 1015.89 1014.60 1014.09 1014.07 1014.18 1014.31 1014.21 1014.24
1017.35 1016.74 1016.83 1016.60 1017.17 1017.32 1018.08 1018.05 1017.85 1018.05 1017.34 1015.66 1015.17 1014.92 1014.87 1015.16 1015.33 1015.38 1015.40 1015.35 1016.00 1016.62 1017.36 1017.83 1017.98 1018.28 1018.45 1018.86 1019.50 1019.87 1020.19 1020.73 1021.29 1021.85 1021.93 1020.79 1020.15 1015.78 1014.90 1014.17 1013.94 1014.12 1014.31 1014.46 1014.70
1017.31 1016.57 1016.73 1016.98 1017.21 1017.79 1017.38 1017.72 1017.80 1018.10 1016.79 1015.39 1015.01 1014.93 1015.18 1015.19 1015.34 1015.45 1015.61 1015.81 1016.37 1016.87 1017.60 1018.12 1018.21 1018.38 1018.56 1019.02 1019.49 1020.16 1020.73 1021.49 1022.44 1023.02 1022.92 1021.28 1020.37 1016.47 1014.88 1013.50 1013.52 1014.08 1014.47 1014.93 1014.90
1017.23 1016.99 1016.76 1016.61 1017.37 1017.62 1016.95 1017.97 1018.11 1017.79 1015.92 1015.65 1015.29 1015.13 1015.36 1015.48 1015.67 1015.73 1015.99 1016.41 1016.74 1017.62 1018.17 1018.57 1018.52 1018.67 1018.83 1019.35 1019.83 1020.50 1021.61 1023.81 1024.74 1024.98 1023.55 1021.87 1020.50 1015.91 1013.72 1013.22 1013.37 1014.05 1014.72 1014.84 1014.91
1016.80 1016.82 1016.88 1017.02 1017.31 1017.35 1017.16 1018.55 1017.56 1015.98 1015.66 1015.45 1015.75 1015.66 1015.88 1015.91 1016.05 1016.15 1016.46 1016.87 1017.06 1017.42 1018.12 1018.62 1019.04 1018.90 1019.10 1019.47 1020.16 1021.38 1022.51 1024.94 1026.48 1026.66 1025.02 1022.60 1019.98 1014.98 1013.28 1012.81 1013.03 1013.95 1014.82 1015.11 1015.19
1017.05 1017.34 1017.32 1017.35 1017.38 1017.26 1017.40 1017.58 1016.84 1015.98 1015.98 1015.88 1016.43 1016.22 1016.52 1016.62 1016.78 1016.72 1016.89 1016.78 1016.62 1017.01 1017.67 1018.44 1018.92 1019.27 1019.42 1019.74 1020.69 1021.87 1023.09 1024.58 1026.78 1028.18 1026.69 1022.66 1018.87 1014.91 1013.01 1013.10 1013.54 1014.36 1015.14 1015.31 1015.03
1017.42 1017.48 1017.38 1017.40 1017.55 1017.39 1017.24 1016.53 1015.66 1015.33 1015.59 1016.39 1016.54 1016.72 1017.48 1017.40 1017.63 1017.34 1016.79 1016.34 1016.67 1016.98 1017.37 1017.68 1018.74 1019.60 1020.06 1020.27 1021.08 1021.51 1023.26 1025.15 1026.76 1028.03 1027.01 1022.92 1020.14 1016.35 1013.84 1013.53 1014.00 1014.77 1015.12 1015.14 1015.34
1017.62 1017.38 1017.34 1017.38 1017.67 1017.50 1016.93 1016.07 1015.47 1015.16 1015.33 1016.12 1016.81 1017.37 1017.80 1018.06 1018.15 1017.72 1017.06 1016.71 1016.72 1017.27 1017.54 1018.06 1018.47 1020.30 1020.39 1020.25 1020.44 1022.08 1023.36 1025.27 1026.41 1026.93 1027.18 1024.92 1018.56 1014.52 1013.64 1013.37 1013.95 1014.84 1015.18 1015.43 1015.53
1017.16 1017.17 1017.24 1017.32 1017.87 1017.26 1016.11 1015.31 1014.89 1015.35 1015.66 1016.04 1016.50 1017.22 1017.80 1018.36 1018.28 1018.00 1017.20 1016.93 1016.84 1017.12 1017.95 1018.32 1018.70 1019.85 1019.87 1019.95 1020.14 1020.75 1022.11 1023.88 1025.75 1026.87 1026.64 1025.33 1018.72 1014.20 1013.70 1013.47 1014.01 1014.64 1015.14 1015.24 1015.40
1017.06 1016.67 1017.19 1017.04 1016.34 1015.97 1015.77 1014.99 1014.74 1015.24 1015.41 1015.94 1016.51 1016.93 1017.66 1018.36 1018.84 1018.05 1017.56 1017.39 1017.36 1017.39 1017.91 1018.50 1019.18 1020.00 1020.33 1020.71 1020.63 1020.78 1021.47 1022.80 1024.35 1025.46 1025.75 1024.72 1018.29 1014.35 1014.05 1014.04 1014.44 1015.03 1015.08 1015.04 1015.05
1017.52 1016.53 1016.85 1016.52 1015.39 1014.61 1014.88 1015.04 1014.69 1014.68 1014.90 1015.38 1016.21 1017.13 1017.87 1018.42 1018.52 1018.45 1017.92 1017.86 1017.83 1017.95 1018.27 1018.58 1019.38 1019.82 1019.59 1019.20 1019.26 1020.39 1020.69 1021.75 1022.94 1024.77 1023.86 1021.06 1017.30 1014.61 1014.36 1014.73 1015.03 1015.23 1015.17 1014.99 1014.96
1017.19 1014.99 1014.54 1014.91 1014.57 1014.33 1014.07 1013.90 1014.32 1014.59 1015.03 1015.32 1016.16 1016.21 1016.79 1018.03 1018.64 1018.47 1018.00 1018.30 1018.43 1018.46 1018.94 1019.39 1020.03 1020.22 1019.64 1019.50 1019.36 1019.30 1019.65 1020.62 1021.26 1021.14 1021.48 1018.45 1017.94 1014.86 1014.46 1015.13 1015.20 1015.30 1015.07 1015.12 1014.96
1016.52 1015.10 1014.55 1013.80 1013.29 1013.83 1013.27 1012.75 1013.18 1013.88 1014.25 1014.86 1015.19 1015.36 1015.87 1016.50 1016.69 1017.13 1017.48 1018.09 1018.22 1019.21 1019.59 1020.10 1020.64 1021.02 1020.55 1019.77 1019.44 1018.87 1018.18 1018.70 1019.34 1019.71 1019.34 1017.86 1016.92 1013.90 1013.71 1014.39 1015.14 1015.43 1015.68 1015.58 1015.12
1015.93 1015.52 1015.30 1013.36 1012.48 1012.58 1010.96 1011.17 1011.81 1012.83 1013.56 1013.67 1014.09 1014.97 1015.66 1015.34 1016.62 1017.12 1017.32 1017.79 1018.24 1018.89 1019.85 1020.69 1021.39 1022.08 1021.60 1020.51 1019.54 1017.74 1014.88 1016.07 1016.79 1016.77 1016.93 1017.54 1014.24 1013.39 1013.85 1014.67 1014.93 1015.12 1015.09 1015.13 1015.03
Wind_Speed
12 12 14 14 14 13 13 14 15 15 14 13 12 11 11 11 8 5 4 5 6 12 9 4 2 2 3 3 2 3 4 2 3 5 2 1 3 3 4 4 5 4 1 1 3
13 12 12 14 15 13 13 14 15 15 14 13 11 11 10 8 1 3 3 11 11 10 2 2 4 4 3 2 2 4 4 8 2 1 2 1 1 2 4 5 4 4 3 3 5
13 13 13 14 15 15 14 13 15 15 14 13 11 11 10 4 1 2 9 12 12 8 3 1 2 3 3 2 1 3 4 3 2 1 1 2 3 2 1 6 8 4 6 6 4
13 14 14 14 15 15 15 14 15 15 14 13 11 11 11 1 2 3 12 12 10 3 5 3 3 3 4 4 1 2 1 1 1 1 2 3 1 3 5 8 3 7 7 6 8
12 13 15 14 16 16 15 14 15 15 14 12 11 11 2 2 2 4 10 8 2 3 5 3 4 2 6 4 3 2 2 3 3 5 4 3 6 4 9 9 7 7 4 6 8
11 12 14 15 15 17 16 15 15 15 14 10 10 8 0 1 1 6 6 4 5 5 4 5 3 1 4 2 3 1 1 4 3 4 2 3 5 3 7 4 7 6 10 8 8
10 12 14 15 17 18 18 17 15 14 12 10 8 2 1 2 0 5 7 2 3 2 4 2 2 3 3 3 1 1 1 1 6 4 2 4 1 7 4 2 7 10 9 9 9
9 10 13 15 17 19 19 18 17 14 10 8 7 1 3 1 0 3 6 2 5 2 3 2 2 6 4 2 5 5 5 4 2 6 3 7 10 6 3 3 13 7 8 7 8
9 10 11 13 16 19 20 20 15 6 4 5 1 1 3 1 3 3 3 2 4 2 2 1 5 4 5 4 4 7 1 2 10 4 4 2 9 5 5 10 14 11 8 7 7
9 9 11 12 16 19 22 14 5 3 2 0 0 3 1 2 3 3 3 3 3 2 3 6 6 4 4 4 4 2 2 3 6 3 5 7 19 16 10 6 10 10 8 6 6
10 10 11 13 16 20 10 4 5 2 7 1 1 2 2 6 1 3 4 3 1 6 2 3 6 3 3 2 3 5 1 4 5 4 6 4 13 18 13 7 9 7 4 6 6
9 8 9 13 16 16 3 5 3 2 6 2 1 1 1 0 1 2 4 2 2 2 1 5 2 3 4 3 2 2 2 5 6 2 3 7 19 14 8 5 2 5 5 6 3
10 7 7 12 12 5 4 3 3 1 3 2 2 2 2 1 2 2 3 1 3 2 1 4 1 5 3 2 1 3 4 1 3 7 3 7 9 3 2 2 3 4 4 2 2
16 6 5 13 4 2 4 6 4 2 3 4 3 2 2 2 1 1 1 1 4 5 3 4 2 4 3 1 4 4 4 1 4 3 3 5 7 5 3 4 4 5 3 4 8
21 6 2 5 2 3 2 4 3 1 3 2 3 2 2 3 3 1 1 2 6 5 4 2 5 3 3 3 5 3 2 1 1 1 4 2 3 9 2 5 9 7 5 6 7
15 6 7 3 2 1 1 3 1 4 9 2 3 3 3 1 1 2 2 5 2 4 4 2 0 1 2 2 2 2 2 5 4 2 4 3 3 8 5 7 3 3 4 7 8
15 7 5 4 2 1 2 2 4 5 2 4 2 3 1 3 1 2 2 2 5 5 4 1 2 1 2 2 1 4 5 5 8 6 7 1 1 13 7 6 4 7 5 8 8
22 8 4 2 3 4 4 4 7 4 5 2 1 2 3 2 1 2 3 2 3 4 3 6 4 5 2 1 3 3 5 8 6 2 7 4 8 10 5 4 6 3 5 8 9
7 2 0 2 1 3 5 2 5 5 1 5 1 4 4 1 1 2 6 5 7 8 7 5 1 2 3 2 2 3 3 4 8 1 4 4 8 13 6 7 6 3 6 8 11
2 1 2 4 3 2 3 6 6 4 7 1 2 2 3 1 3 4 6 3 5 3 2 4 4 1 3 3 4 4 4 4 4 1 6 7 7 9 5 4 6 5 9 11 9
3 3 3 3 2 4 5 6 5 3 3 5 5 2 2 2 4 4 5 1 2 4 3 3 2 0 2 6 8 3 2 5 3 3 6 4 10 9 7 5 7 6 7 8 9
4 4 3 2 3 3 4 7 4 5 2 3 3 3 5 2 3 4 5 2 5 5 6 3 4 4 3 2 2 3 6 6 7 6 2 3 14 2 8 5 5 6 7 8 6
5 2 1 1 7 6 1 3 5 6 6 9 9 3 3 5 3 3 1 4 3 4 6 5 2 2 4 2 3 4 5 5 5 3 7 7 12 1 2 4 5 7 9 6 7
4 4 2 3 2 5 7 4 6 3 4 5 6 5 4 4 3 3 3 1 1 2 4 4 3 6 7 4 5 5 6 8 7 5 5 13 13 19 13 9 10 10 7 6 5
4 5 6 8 9 5 11 11 8 6 3 5 1 6 9 6 3 7 3 2 2 4 3 3 4 2 4 6 3 5 6 14 14 10 10 8 11 18 10 7 9 6 6 8 8
4 3 2 3 6 16 14 16 13 5 10 6 5 15 12 8 9 8 8 4 5 2 5 1 2 2 5 3 4 7 13 17 18 10 15 19 25 25 22 9 4 8 4 8 7
4 9 3 5 7 14 21 21 16 11 8 4 17 6 13 15 4 2 4 3 6 8 6 5 5 3 6 3 6 9 11 16 7 5 12 10 19 1 6 4 6 8 6 8 7
Wind_Direction
352 352 353 351 342 344 343 339 341 339 335 331 330 338 340 347 349 33 37 289 304 309 321 271 78 92 63 46 32 107 67 212 242 173 182 16 15 350 307 274 345 324 202 160 339
345 344 348 347 338 341 343 338 339 335 334 329 333 334 334 345 35 37 271 332 324 327 345 80 102 118 60 94 27 93 125 220 204 178 230 236 188 279 344 355 280 301 270 342 330
340 338 338 338 336 338 340 340 333 333 331 328 333 328 328 319 324 288 331 338 332 342 198 108 92 111 93 100 169 159 194 218 246 184 28 324 300 315 7 308 233 230 276 303 286
334 332 331 334 332 334 338 335 329 330 330 327 327 324 323 283 229 274 336 332 333 10 135 107 76 94 117 155 170 147 328 22 208 15 7 301 291 258 185 234 257 263 272 285 290
327 326 329 331 328 329 331 330 328 327 326 324 322 323 328 24 278 314 333 333 1 58 56 76 79 114 142 142 122 155 13 346 359 321 269 294 260 252 266 270 292 279 281 307 311
318 324 322 323 325 326 327 325 324 323 320 318 323 323 220 252 214 351 334 337 25 49 39 46 113 124 99 88 122 158 303 285 342 333 298 300 278 119 268 231 290 345 312 291 285
309 316 315 321 327 325 323 320 317 315 310 307 316 329 46 181 12 338 6 9 3 80 98 80 126 101 118 114 144 115 63 68 15 327 356 263 152 214 218 325 300 310 296 288 279
301 306 311 323 326 321 320 315 310 304 294 293 314 321 232 318 199 8 350 342 1 45 101 145 62 99 56 137 28 46 52 8 333 353 333 69 271 248 288 330 294 274 288 288 290
297 303 309 324 327 316 320 313 303 293 248 295 328 108 274 321 26 323 44 14 310 8 54 80 72 80 28 77 32 12 211 303 320 50 326 80 274 239 337 334 304 307 308 302 310
296 300 308 328 326 324 319 315 301 26 53 23 322 31 335 318 323 345 360 24 25 4 40 47 53 73 43 66 215 224 322 284 255 309 349 289 267 290 298 297 277 288 287 300 37
288 305 322 333 330 325 332 4 15 344 40 247 287 280 331 301 294 17 21 5 57 47 115 9 75 168 144 67 84 101 109 258 261 296 317 230 278 284 298 293 281 267 316 74 96
291 310 316 325 324 327 21 54 69 222 310 227 247 269 222 1 356 345 3 125 91 146 103 31 140 156 118 85 94 126 236 254 270 266 348 317 294 288 280 260 286 138 96 76 22
282 291 317 324 322 40 62 44 352 15 257 267 221 225 217 42 177 300 12 143 106 93 35 131 88 123 112 86 55 218 202 228 254 326 241 304 288 306 331 70 80 84 117 99 347
323 267 342 326 64 292 49 338 348 330 27 230 227 229 143 122 270 120 34 107 47 150 124 115 150 134 132 182 143 271 158 125 282 21 273 42 277 294 242 284 208 187 182 350 348
346 224 69 37 216 81 252 324 319 300 350 137 191 128 126 163 124 41 29 28 145 143 114 199 149 163 149 199 171 222 359 257 172 129 27 246 66 270 293 255 230 222 225 320 309
325 216 140 110 73 171 86 335 82 54 248 203 146 168 143 130 120 128 82 53 117 98 41 107 330 132 152 140 193 1 84 51 53 63 20 244 119 272 213 211 161 188 244 289 302
321 270 161 117 202 274 144 61 78 191 341 273 199 155 212 158 175 160 147 137 153 107 199 181 173 163 137 149 110 67 56 343 352 10 220 0 189 247 259 233 204 186 286 305 306
314 164 131 58 142 218 65 84 239 201 222 101 32 89 176 137 207 151 131 219 225 124 114 158 298 167 153 124 150 72 133 147 237 259 279 316 235 252 232 266 155 147 301 301 299
108 30 153 148 45 271 105 168 238 211 181 152 215 87 315 349 178 164 207 216 192 178 165 140 177 74 55 98 97 211 53 143 101 43 34 259 285 287 261 205 183 278 311 294 332
294 256 216 138 193 76 88 223 208 169 132 136 189 116 218 260 186 184 186 196 183 179 116 202 99 302 149 121 40 105 132 70 2 9 301 285 278 247 268 224 202 312 325 327 310
240 245 112 142 236 75 202 226 206 185 141 138 175 117 211 283 211 232 218 224 149 134 97 144 102 110 128 206 169 103 53 50 116 138 171 294 264 221 235 219 194 247 306 292 293
253 228 144 123 145 190 207 184 162 158 125 99 103 163 176 188 234 245 231 228 149 146 155 176 137 173 198 63 144 148 159 146 128 238 205 145 272 280 253 208 179 287 287 285 274
267 164 181 146 208 195 235 225 171 149 183 168 184 191 97 169 255 212 268 340 142 135 155 193 281 53 345 30 1 211 179 130 120 94 201 142 262 353 348 215 246 282 293 277 300
282 210 183 199 293 227 156 226 190 209 155 153 127 109 123 196 223 288 220 41 49 110 118 116 120 183 197 169 122 193 188 170 136 137 189 230 275 278 276 269 294 286 265 288 299
233 239 196 191 211 191 172 164 175 170 206 152 117 199 160 168 184 229 163 145 10 163 77 125 203 159 263 233 207 222 184 186 203 191 191 268 226 263 270 258 274 271 310 321 319
275 285 274 179 180 191 191 195 191 173 163 198 206 191 177 174 186 199 143 196 192 118 158 103 241 112 291 336 200 265 231 213 219 223 255 260 280 274 274 283 271 258 263 283 291
211 273 248 258 179 187 213 210 207 152 227 200 200 135 190 211 114 27 72 83 163 153 167 151 134 93 268 341 300 285 238 187 189 210 206 203 233 258 272 241 246 257 226 252 285